Location: Broekland
(52.3610°N, 6.2005°E)
Time: 21:47:48
(UTC+00:00)

Lacrosse 4 Rocket - Pass Details

Date: 19 May 2025
Orbit: 513 x 576 km, 68.0° (Epoch: 15 June)

Event Time Altitude Azimuth Distance (km) Brightness Sun altitude
Rises 20:16:26 0° 240° (WSW) 2,639 5.0 -6.2°
Reaches altitude 10° 20:18:43 10° 249° (WSW) 1,763 4.2 -6.4°
Maximum altitude 20:22:21 35° 317° (NW) 868 3.2 -6.8°
Drops below altitude 10° 20:26:05 10° 25° (NNE) 1,804 4.3 -7.2°
Sets 20:28:26 0° 34° (NE) 2,711 5.0 -7.4°
